User: anonymous   Login
Location: Kelshall
(52.0000°N, 0.0500°W)
Time: 13:17:40
(UTC+00:00)
Language:

NOSS 8 (H) - Orbit

View from above orbital plane
View from above orbital plane
View from above satellite
View from above satellite

Ground track
Ground track

The orbit data is extracted from the following two-line orbital elements,

1 18025U 87043H   21206.59976527  .00002635  00000-0  20848-3 0  9990
2 18025  63.2978 157.7403 0949827  67.9375 301.9706 13.46800002107846
Epoch (UTC): 25 July 2021 14:23:39
Eccentricity: 0.0949827
inclination: 63.2978°
perigee height: 375 km
apogee height: 1793 km
right ascension of ascending node: 157.7403°
argument of perigee: 67.9375°
revolutions per day: 13.46800002
mean anomaly at epoch: 301.9706°
orbit number at epoch: 10784

The dashed part of the orbit path shows where the satellite is in the earth's shadow,  

DLR